KN2B-13 Weather Reports


time (UTC)temp
C
wind
direction
speed
KPH
gust
KPH
rain 1hr
cm
rain 24hr
cm
rain mn
cm
humidity
%
barometer
mb
20260506161957 16 191 11.3 19.3 0.10 0.13 0.13 90 1006.9
20260506155957 16 165 11.3 20.9 0.08 0.08 0.08 88 1007.6
20260506154958 16 221 11.3 16.1 0.05 0.05 0.05 87 1007.8
20260506153957 16 192 11.3 17.7 0.05 0.05 0.05 86 1007.5
20260506152957 17 180 11.3 20.9 0.03 0.03 0.03 86 1007.4
20260506151957 16 197 9.7 16.1 0.03 0.03 0.03 86 1007.6
20260506150957 16 169 9.7 19.3 0.03 0.03 0.03 85 1007.7
20260506143958 17 178 11.3 19.3 0.00 0.00 0.00 78 1008.1
20260506142958 17 209 11.3 16.1 0.00 0.00 0.00 77 1007.9
20260506141958 18 223 12.9 24.1 0.00 0.00 0.00 77 1007.8
20260506140958 17 208 14.5 24.1 0.00 0.00 0.00 76 1007.8
20260506135957 18 210 17.7 30.6 0.00 0.00 0.00 75 1007.7
20260506133957 18 246 14.5 24.1 0.00 0.00 0.00 73 1008.0
20260506131957 18 161 16.1 37.0 0.00 0.00 0.00 73 1008.0
20260506130957 18 223 17.7 30.6 0.00 0.00 0.00 73 1007.9
20260506125958 18 221 17.7 33.8 0.00 0.00 0.00 74 1007.9
20260506123957 18 217 16.1 27.4 0.00 0.00 0.00 74 1007.7
20260506121957 17 196 12.9 25.7 0.00 0.00 0.00 75 1007.8
20260506120957 17 188 12.9 19.3 0.00 0.00 0.00 75 1008.0
20260506115957 17 208 11.3 24.1 0.00 0.00 0.00 76 1008.1
20260506113956 17 181 11.3 24.1 0.00 0.00 0.00 76 1008.0
20260506112957 17 185 12.9 25.7 0.00 0.00 0.00 76 1008.1
20260506111957 17 191 12.9 19.3 0.00 0.00 0.00 76 1008.0
20260506110958 17 202 12.9 22.5 0.00 0.00 0.00 76 1007.9
20260506105959 17 190 12.9 20.9 0.00 0.00 0.00 76 1007.9
20260506104958 17 166 12.9 25.7 0.00 0.00 0.00 76 1007.8
20260506103957 17 230 12.9 22.5 0.00 0.00 0.00 76 1007.7
20260506102957 17 190 12.9 25.7 0.00 0.00 0.00 75 1007.7
20260506100957 17 170 12.9 27.4 0.00 0.00 0.00 75 1007.6
20260506094957 18 198 12.9 22.5 0.00 0.00 0.00 75 1007.5
20260506085956 18 209 12.9 22.5 0.00 0.00 0.00 72 1007.7
20260506084957 18 205 11.3 17.7 0.00 0.00 0.00 72 1007.8
20260506082957 18 202 12.9 19.3 0.00 0.00 0.00 70 1007.8
20260506081958 18 235 11.3 19.3 0.00 0.00 0.00 69 1007.7
20260506080957 18 232 11.3 19.3 0.00 0.00 0.00 68 1007.8
20260506072957 18 200 12.9 22.5 0.00 0.00 0.00 64 1007.9
20260506071957 19 180 11.3 19.3 0.00 0.00 0.00 63 1007.9
20260506070958 19 202 11.3 22.5 0.00 0.00 0.00 63 1007.9
20260506061958 20 200 12.9 24.1 0.00 0.00 0.00 60 1008.4
20260506060957 20 224 11.3 22.5 0.00 0.00 0.00 60 1008.3
20260506044958 20 196 11.3 19.3 0.00 0.00 0.00 59 1008.8
20260506043959 20 229 11.3 17.7 0.00 0.00 0.00 59 1008.8
20260506042959 20 255 11.3 19.3 0.00 0.00 0.00 58 1008.7
20260506041958 20 229 11.3 30.6 0.00 0.00 0.00 58 1008.6
20260506040959 20 207 14.5 25.7 0.00 0.00 0.00 57 1008.6
20260506035959 20 239 14.5 27.4 0.00 0.00 0.00 56 1008.6
20260506034959 21 188 12.9 25.7 0.00 0.00 0.00 54 1008.5
20260506034000 21 189 11.3 22.5 0.00 0.00 0.00 52 1008.5
20260506033000 21 204 11.3 20.9 0.00 0.00 0.00 51 1008.4
20260506031959 21 202 11.3 30.6 0.00 0.00 0.00 50 1008.4
20260506031000 21 198 11.3 17.7 0.00 0.00 0.00 49 1008.5
20260506024959 22 218 11.3 22.5 0.00 0.00 0.00 47 1008.3
20260506023958 22 215 11.3 25.7 0.00 0.00 0.00 47 1008.3
20260506022959 22 190 12.9 24.1 0.00 0.00 0.00 46 1008.4
20260506022000 22 226 16.1 29.0 0.00 0.00 0.00 45 1008.3
20260506021000 22 169 16.1 33.8 0.00 0.00 0.00 45 1008.2
20260506015959 22 181 16.1 37.0 0.00 0.00 0.00 45 1008.3
20260506014958 22 213 17.7 29.0 0.00 0.00 0.00 45 1008.1
20260506013959 22 196 14.5 24.1 0.00 0.00 0.00 45 1008.1
20260506012959 22 205 12.9 24.1 0.00 0.00 0.00 45 1008.0
20260506011959 22 199 14.5 22.5 0.00 0.00 0.00 43 1008.0
20260506010959 23 191 12.9 25.7 0.00 0.00 0.00 42 1007.7
20260506010001 23 191 11.3 17.7 0.00 0.00 0.00 41 1007.6
20260506004959 23 203 12.9 24.1 0.00 0.00 0.00 40 1007.6
20260506004000 23 185 14.5 27.4 0.00 0.00 0.00 39 1007.5
20260506000959 23 225 12.9 20.9 0.00 0.00 0.00 38 1007.4
20260505235957 24 238 14.5 25.7 0.00 0.00 0.00 38 1007.3
20260505234957 24 226 12.9 22.5 0.00 0.00 0.00 37 1007.2
20260505233958 24 205 17.7 32.2 0.00 0.00 0.00 38 1007.2
20260505232959 24 225 14.5 29.0 0.00 0.00 0.00 38 1007.1
20260505231957 24 242 14.5 25.7 0.00 0.00 0.00 39 1007.1
20260505230956 24 230 12.9 27.4 0.00 0.00 0.00 38 1007.0
20260505230001 24 208 19.3 33.8 0.00 0.00 0.00 38 1006.8
20260505224959 25 229 17.7 32.2 0.00 0.00 0.00 37 1006.8
20260505222958 25 225 16.1 30.6 0.00 0.00 0.00 37 1006.6
20260505221959 25 213 24.1 40.2 0.00 0.00 0.00 36 1006.6
20260505220959 25 224 17.7 38.6 0.00 0.00 0.00 36 1006.5
20260505220003 26 228 24.1 45.1 0.00 0.00 0.00 36 1006.4
20260505214959 26 223 22.5 43.5 0.00 0.00 0.00 36 1006.2
20260505213959 26 257 22.5 37.0 0.00 0.00 0.00 34 1006.2
20260505212958 26 201 19.3 40.2 0.00 0.00 0.00 34 1006.1
20260505210959 26 232 17.7 41.8 0.00 0.00 0.00 35 1006.1
20260505205958 26 227 22.5 38.6 0.00 0.00 0.00 32 1005.9
20260505201959 26 242 25.7 41.8 0.00 0.00 0.00 32 1005.9
20260505200959 26 198 22.5 40.2 0.00 0.00 0.00 31 1006.0
20260505195959 27 217 19.3 32.2 0.00 0.00 0.00 33 1006.2
20260505194958 26 224 24.1 37.0 0.00 0.00 0.00 33 1006.2
20260505193958 26 209 22.5 37.0 0.00 0.00 0.00 33 1006.2
20260505192958 26 214 22.5 38.6 0.00 0.00 0.00 34 1006.2
20260505191958 26 199 20.9 40.2 0.00 0.00 0.00 37 1006.4
20260505190959 26 190 20.9 33.8 0.00 0.00 0.00 36 1006.5
20260505185959 26 220 17.7 27.4 0.00 0.00 0.00 37 1006.6
20260505184958 26 230 19.3 38.6 0.00 0.00 0.00 34 1006.9
20260505183958 27 223 19.3 40.2 0.00 0.00 0.00 38 1006.9
20260505182958 26 245 22.5 35.4 0.00 0.00 0.00 36 1007.1
20260505181958 26 240 19.3 38.6 0.00 0.00 0.00 39 1007.3
20260505180959 26 238 14.5 32.2 0.00 0.00 0.00 41 1007.5
20260505180000 26 242 17.7 37.0 0.00 0.00 0.00 41 1007.6
20260505174959 26 209 16.1 32.2 0.00 0.00 0.00 42 1007.6
20260505173959 26 250 14.5 27.4 0.00 0.00 0.00 42 1007.7
20260505172959 25 225 20.9 37.0 0.00 0.00 0.00 43 1007.7
20260505171957 25 236 22.5 38.6 0.00 0.00 0.00 42 1007.7
20260505170958 25 211 19.3 33.8 0.00 0.00 0.00 44 1007.9
20260505165958 25 196 17.7 35.4 0.00 0.00 0.00 46 1008.1
20260505164958 24 162 19.3 35.4 0.00 0.00 0.00 46 1008.2
20260505163958 24 229 17.7 33.8 0.00 0.00 0.00 48 1008.3
20260505162958 24 203 14.5 29.0 0.00 0.00 0.00 47 1008.5